Weather in Sheyno

Russia / Penza Oblast     53°21′47″N   43°12′33″E
temp.,
°C
wind,
m/s
gust,
m/s
humid.,
%
clouds,
%
prec.,
mm/h
press.,
hPa
HPBL,
m
28 february, sun
sun2800:00−14nnw379697 0.1 1012145
03:00−16nw349785 0.1 101380
06:00−16nw349854 0.0 101475
09:00−14nw479661 0.0 1015252
12:00−11nw369294 0.0 1015403
15:00−9nw369197 0.1 1016527
18:00−12nnw2395100 0.1 101721
21:00−14n239692 0.1 102020
1 march, mon
mon100:00−15n239785 0.0 102120
03:00−16nnw229651 0.0 102320
06:00−17nnw22960 0.0 102320
09:00−14nw22950 0.0 102575
12:00−10w239155 0.0 1025227
15:00−9wsw359476 0.0 1024265
18:00−10sw449790 0.0 102376
21:00−7wsw5139694 0.1 1021310
2 march, tue
tue200:00−4wsw71395100 0.2 1018471
03:00−3wsw81496100 1.2 1014505
06:00−2wsw81596100 1.3 1010604
09:000w81598100 3.1 1007824
12:000wnw71298100 1.7 1005655
15:000nw71194100 2.9 1005777
18:00−3wnw4129285 0.4 1006293
21:00−3wnw5129588 0.6 1007488
3 march, wed
wed300:00−3nw61295100 0.3 1007521
03:00−4nw5119596 0.4 1008446
06:00−5nw5129591 0.3 1008466
09:00−5nw7129292 0.4 1010707
12:00−5nw81189100 0.1 1012854
15:00−4nw81189100 0.3 1013993
18:00−6nw6129195 0.1 1014442
21:00−8nw499594 0.1 1017187
4 march, thu
thu400:00−10nw479632 0.0 1018115
03:00−11w349854 0.1 101858
06:00−8wsw489794 0.1 1018182
09:00−7wsw6119590 0.1 1017324
12:00−3wsw8139095 0.0 1015621
15:00−1wsw8158798 0.0 1013683
18:00−3sw71687100 0.0 1011573
21:00−2sw8178681 0.0 1010623